Powrót do katalogu

ONEWEB-0245

AktywnyŁącznośćPO
NORAD 48778·PAYLOAD·🇬🇧 United Kingdom

Wystrzelony May 28, 2021 z Vostochny Cosmodrome

Loading…

Następne Przeloty (najbliższe 24 godziny)

TLE

ŚwieżeSource: CelesTrak SupGP

Epoka: Sep 14, 2026, 19:44 UTC

1 48778C 21045M   26257.82275880  .00002912  00000+0  77437-2 0  2578
2 48778  87.8983 241.3249 0001852  82.9706 317.8710 13.15543525    14

Śledź ONEWEB-0245 w czasie rzeczywistym z AllMySat

Download on the App Store